Home   Weather   Boa Vista   Past weeks

Flag for Brazil Past Weather in Boa Vista, Roraima, Brazil — Yesterday and Last 2 Weeks

Now
82 °F

Thunderstorms. Partly cloudy.


Feels Like: 88 °F
Forecast: 77 / 93 °F
Wind: 17 mph from Southeast

Location: Boa Vista Aeropor-To

Current Time: Sep 28, 2016 at 8:08:44 PM

Latest Report: Sep 28, 2016 at 7:00 PM


Visibility: N/A

Pressure: 29.86 "Hg

Humidity: 74%

Dew Point: 73 °F

Location of Boa VistaLocation

Past Weather in Boa Vista — Graph

°F

Boa Vista Temperature Yesterday

Maximum temperature yesterday: 95 °F (at 1:00 PM)
Minimum temperature yesterday: 79 °F (at 6:00 AM)
Average temperature yesterday: 88 °F

High & Low Weather Summary for the Past Weeks

 TemperatureHumidityPressure
High97 °F (Sep 28, 2:00 PM)100% (Sep 16, 5:00 PM)30.01 "Hg (Sep 16, 5:00 PM)
Low34 °F (Sep 17, 1:00 AM)34% (Sep 27, 1:00 PM)29.74 "Hg (Sep 26, 5:00 PM)
Average85 °F68%29.88 "Hg
* Reported Sep 13 7:00 PM — Sep 28 7:00 PM, Boa Vista, Weather by CustomWeather, © 2016

Note: Actual official high and low records may vary slightly from our data, if they occured in-between our weather recording intervals... More about our weather records

Advertising

Boa Vista Weather History for the Previous 24 Hours

Scroll right to see more
 ConditionsComfort  
Time TempWeatherWind HumidityBarometerVisibility
7:00 PM
Wed, Sep 28
82 °FThunderstorms. Partly cloudy.17 mph74%29.86 "HgN/A
6:00 PM86 °FPassing clouds.8 mph66%29.80 "HgN/A
5:00 PM95 °FScattered clouds.6 mph44%29.77 "HgN/A
4:00 PM95 °FScattered clouds.9 mph44%29.77 "HgN/A
3:00 PM95 °FBroken clouds.9 mph47%29.80 "HgN/A
2:00 PM97 °FBroken clouds.6 mph39%29.80 "HgN/A
1:00 PM93 °FBroken clouds.5 mph47%29.86 "HgN/A
12:00 PM91 °FBroken clouds.6 mph49%29.89 "HgN/A
11:00 AM95 °FScattered clouds.3 mph47%29.92 "HgN/A
10:00 AM88 °FBroken clouds.3 mph59%29.95 "HgN/A
9:00 AM86 °FScattered clouds.5 mph70%29.95 "HgN/A
8:00 AM82 °FScattered clouds.3 mph79%29.95 "HgN/A
7:00 AM81 °FSunny.5 mph84%29.92 "Hg10 mi
6:00 AM79 °FSunny.7 mph89%29.89 "Hg10 mi
5:00 AM81 °FClear.2 mph79%29.86 "Hg10 mi
4:00 AM81 °FClear.2 mph74%29.83 "Hg10 mi
3:00 AM82 °FClear.1 mph74%29.83 "Hg10 mi
2:00 AM82 °FClear.No wind70%29.83 "Hg10 mi
1:00 AM82 °FClear.No wind74%29.83 "Hg10 mi
12:00 AM84 °FClear.2 mph66%29.83 "Hg10 mi
11:00 PM
Tue, Sep 27
84 °FPassing clouds.5 mph66%29.83 "HgN/A
10:00 PM88 °FClear.1 mph59%29.83 "Hg10 mi
9:00 PM88 °FClear.1 mph59%29.83 "Hg10 mi
8:00 PM90 °FClear.2 mph52%29.80 "Hg10 mi
Weather by CustomWeather, © 2016

See weather overviewHow to use our weather pages